DW8722 Weather Reports


Display with metric or nautical units.
time (UTC)temp
F
wind
direction
speed
MPH
gust
MPH
rain 1hr
in
rain 24hr
in
rain mn
in
humidity
%
barometer
mb
20260509132100 71 33 0.0 0.0 0.00 0.51 0.00 89 1009.9
20260509131109 71 99 0.0 0.0 0.00 0.51 0.00 88 1009.8
20260509130043 70 100 0.0 0.0 0.00 0.51 0.00 88 1009.8
20260509123956 69 65 0.0 0.0 0.00 0.51 0.00 89 1009.9
20260509122929 69 66 0.0 0.0 0.00 0.51 0.00 89 1009.9
20260509121905 68 84 0.0 2.0 0.00 0.51 0.00 89 1009.9
20260509120833 68 81 0.0 0.0 0.00 0.55 0.00 90 1009.8
20260509114723 68 85 0.0 1.0 0.00 0.69 0.00 90 1009.8
20260509113649 68 57 0.0 0.0 0.00 0.69 0.00 90 1009.6
20260509112628 68 57 0.0 2.0 0.00 0.69 0.00 90 1009.4
20260509111622 67 30 1.0 1.0 0.00 0.69 0.00 90 1009.2
20260509110646 67 36 1.0 3.0 0.00 0.69 0.00 90 1009.1
20260509105702 67 9 0.0 2.0 0.00 0.70 0.00 90 1009.0
20260509104636 67 0 2.0 3.0 0.00 0.73 0.00 90 1009.0
20260509103630 67 31 0.0 2.0 0.00 0.88 0.00 91 1008.9
20260509102621 67 144 0.0 0.0 0.00 0.88 0.00 91 1008.7
20260509101644 67 144 0.0 0.0 0.00 0.88 0.00 91 1008.5
20260509095506 68 144 0.0 0.0 0.00 0.88 0.00 91 1008.3
20260509093429 68 150 4.0 10.0 0.00 0.88 0.00 91 1007.6
20260509092443 68 145 4.0 8.0 0.00 0.88 0.00 91 1008.0
20260509091421 68 146 0.0 0.0 0.00 0.88 0.00 91 1008.3
20260509090434 68 114 0.0 6.0 0.00 0.88 0.00 90 1008.4
20260509083146 68 102 4.0 8.0 0.00 0.88 0.00 91 1008.5
20260509082121 68 101 3.0 7.0 0.00 0.88 0.00 91 1008.7
20260509081117 68 93 2.0 7.0 0.00 0.88 0.00 91 1009.1
20260509080129 68 76 1.0 5.0 0.00 0.88 0.00 91 1009.3
20260509075111 68 89 2.0 5.0 0.00 0.88 0.00 91 1009.5
20260509074038 68 110 1.0 3.0 0.00 0.88 0.00 91 1009.8
20260509071939 68 66 1.0 5.0 0.00 0.88 0.00 91 1010.1
20260509070914 68 5 0.0 0.0 0.00 0.88 0.00 91 1010.4
20260509065857 68 0 0.0 0.0 0.00 0.88 0.00 91 1010.6
20260509064847 68 344 0.0 3.0 0.00 0.88 0.00 91 1010.6
20260509063900 68 35 2.0 4.0 0.00 0.88 0.00 91 1010.7
20260509062901 68 5 1.0 5.0 0.00 0.88 0.00 91 1010.6
20260509061919 68 58 2.0 5.0 0.00 0.88 0.00 91 1010.1
20260509060924 68 69 1.0 3.0 0.00 0.88 0.00 91 1009.8
20260509055910 68 123 0.0 3.0 0.00 0.88 0.00 91 1009.6
20260509054924 68 161 0.0 3.0 0.00 0.88 0.00 91 1009.9
20260509053909 68 169 0.0 3.0 0.00 0.88 0.00 91 1010.0
20260509052910 68 169 0.0 1.0 0.00 0.88 0.00 91 1010.1
20260509051909 68 189 0.0 0.0 0.00 0.88 0.00 91 1010.2
20260509024036 70 140 0.0 0.0 0.00 0.42 0.42 85 1009.9
20260509023012 70 140 0.0 0.0 0.00 0.42 0.42 84 1009.7
20260509022006 70 140 0.0 0.0 0.00 0.42 0.42 84 1009.3
20260509020956 70 140 0.0 0.0 0.00 0.42 0.42 82 1009.0
20260509015936 71 140 0.0 0.0 0.00 0.42 0.42 82 1008.9
20260509014902 71 141 0.0 0.0 0.00 0.42 0.42 81 1008.6
20260509013851 72 169 0.0 1.0 0.00 0.42 0.42 80 1008.5
20260509011737 73 169 1.0 4.0 0.00 0.42 0.42 78 1008.3
20260509010738 73 188 1.0 5.0 0.00 0.42 0.42 78 1008.2
20260509005740 73 171 1.0 5.0 0.00 0.42 0.42 78 1008.2
20260509004716 74 200 1.0 4.0 0.00 0.42 0.42 77 1008.2
20260509003647 74 194 2.0 11.0 0.00 0.42 0.42 77 1008.2
20260509002706 74 192 5.0 11.0 0.00 0.42 0.42 75 1007.9
20260509001711 75 196 5.0 9.0 0.00 0.42 0.42 74 1007.9
20260508235546 76 177 6.0 13.0 0.00 0.42 0.42 71 1007.9
20260508234512 76 161 7.0 13.0 0.00 0.42 0.42 70 1008.0
20260508233514 77 144 6.0 12.0 0.00 0.42 0.42 69 1007.9
20260508232526 77 182 7.0 11.0 0.00 0.42 0.42 68 1008.0
20260508231522 78 147 6.0 11.0 0.00 0.42 0.42 68 1008.2
20260508225411 78 157 7.0 12.0 0.00 0.42 0.42 68 1008.1
20260508224343 79 182 5.0 12.0 0.00 0.42 0.42 66 1008.1
20260508223309 79 184 6.0 12.0 0.00 0.42 0.42 67 1008.2
20260508222320 79 196 5.0 10.0 0.00 0.42 0.42 67 1008.1
20260508221307 79 162 5.0 13.0 0.00 0.42 0.42 67 1008.0
20260508220307 79 130 6.0 13.0 0.00 0.42 0.42 66 1008.0
20260508213036 79 185 7.0 14.0 0.00 0.42 0.42 66 1008.7
20260508210916 79 214 7.0 13.0 0.00 0.42 0.42 65 1009.0
20260508205916 79 168 6.0 15.0 0.00 0.42 0.42 66 1009.2
20260508204857 78 219 6.0 15.0 0.00 0.42 0.42 67 1009.5
20260508203840 77 158 7.0 12.0 0.00 0.42 0.42 65 1009.5
20260508202841 77 148 7.0 11.0 0.00 0.42 0.42 68 1009.8
20260508195624 75 136 3.0 9.0 0.00 0.42 0.42 70 1010.4
20260508193514 76 164 3.0 9.0 0.00 0.42 0.42 67 1010.4
20260508192443 76 107 4.0 8.0 0.00 0.42 0.42 66 1010.4
20260508191442 76 175 5.0 13.0 0.00 0.42 0.42 68 1010.4
20260508190457 76 192 6.0 13.0 0.00 0.42 0.42 66 1010.6
20260508184322 75 178 4.0 11.0 0.00 0.42 0.42 70 1010.7
20260508183338 75 134 4.0 11.0 0.00 0.42 0.42 72 1011.0
20260508182339 74 193 3.0 9.0 0.00 0.42 0.42 71 1011.2
20260508180242 73 171 2.0 10.0 0.00 0.42 0.42 77 1011.6
20260508175232 72 86 1.0 7.0 0.00 0.42 0.42 80 1012.0
20260508174212 71 186 0.0 3.0 0.00 0.42 0.42 80 1012.4
20260508173232 70 194 0.0 3.0 0.00 0.42 0.42 84 1012.5
20260508172208 69 172 2.0 4.0 0.00 0.42 0.42 84 1012.7
20260508171231 69 132 2.0 7.0 0.00 0.42 0.42 87 1013.1
20260508170215 68 168 2.0 6.0 0.00 0.42 0.42 89 1013.3
20260508165210 67 189 1.0 6.0 0.00 0.42 0.42 91 1013.5
20260508164216 66 134 0.0 1.0 0.00 0.42 0.42 91 1013.6
20260508163234 65 103 0.0 0.0 0.06 0.42 0.42 91 1013.7
20260508162221 64 130 0.0 3.0 0.00 0.39 0.40 90 1014.0
20260508161233 64 165 1.0 3.0 0.00 0.39 0.40 90 1014.1
20260508155113 64 156 3.0 7.0 0.00 0.39 0.40 90 1013.9
20260508154136 64 163 1.0 4.0 0.00 0.39 0.40 90 1014.0
20260508153124 64 124 1.0 3.0 0.06 0.39 0.40 89 1013.9
20260508152133 64 138 3.0 7.0 0.46 0.39 0.38 88 1013.9
20260508151103 65 148 2.0 8.0 0.00 0.36 0.37 90 1014.2
20260508150121 65 119 4.0 11.0 0.00 0.36 0.37 91 1014.0
20260508145047 64 159 4.0 11.0 0.00 0.36 0.37 91 1014.1
20260508142839 62 116 0.0 0.0 0.00 0.36 0.37 91 1014.4
20260508141822 61 127 0.0 0.0 0.00 0.36 0.37 91 1014.5
20260508140818 61 112 0.0 0.0 0.00 0.36 0.37 91 1014.8
20260508135841 61 101 0.0 0.0 0.00 0.36 0.37 91 1015.0
20260508134834 61 103 1.0 2.0 0.00 0.36 0.37 91 1014.6
20260508133803 60 180 0.0 0.0 0.00 0.36 0.37 91 1014.5
20260508132758 60 184 1.0 5.0 0.00 0.36 0.37 91 1014.9